Weather History for Puerto Plata, Dominican Republic

Change the Weather History Date:

Wednesday, January 8, 2014

  Actual Average Record
Temperature  
Mean Temperature 77 °F -  
Max Temperature 86 °F 80 °F 93 °F (2008)
Min Temperature 68 °F 67 °F 64 °F (1997)
Cooling Degree Days 12    
Growing Degree Days 27 (Base 50)    
Moisture  
Dew Point 73 °F    
Average Humidity 80    
Maximum Humidity 94    
Minimum Humidity 62    
Precipitation  
Precipitation 0.00 in - - ()
Sea Level Pressure  
Sea Level Pressure 30.07 in    
Wind  
Wind Speed 5 mph ()    
Max Wind Speed 21 mph    
Max Gust Speed -    
Visibility 7.1 miles    
Events      
Averages and records for this station are not official NWS values.
T = Trace of Precipitation, MM = Missing Value Source: Averaged Metar Reports

Daily Weather History Graph

Daily Weather History Graph

Search for Another Location

Airport:

Trip Planner

Search our weather history database for the weather conditions in past years. The results will help you decide how hot, cold, wet, or windy it might be!

Date:

Astronomy

Jan. 08, 2014 Rise Set
Actual Time 7:18 AM AST 6:19 PM AST
Civil Twilight 6:54 AM AST 6:43 PM AST
Nautical Twilight 6:27 AM AST 7:10 PM AST
Astronomical Twilight 6:00 AM AST 7:37 PM AST
Moon 12:45 PM AST (1/8) 12:49 AM AST (1/8)
Length of Visible Light 11h 48m
Length of Day
11h 00m
First Quarter, 55% of the Moon is Illuminated
Jan 8
First Quarter
Jan 16
Full
Jan 24
Last Quarter
Jan 30
New
Feb 6
First Quarter

Hourly Weather History & Observations

Time (AST) Temp. Heat Index Dew Point Humidity Pressure Visibility Wind Dir Wind Speed Gust Speed Precip Events Conditions
2:00 AM 77.0 °F - 73.4 °F 89% 30.04 in 6.2 mi Calm Calm - N/A   Partly Cloudy
5:00 AM 75 °F - 72 °F 86% 30.06 in 10 mi Calm Calm - -   Scattered Clouds
5:00 AM 75.2 °F - 71.6 °F 89% 30.04 in 6.2 mi Calm Calm - N/A   Partly Cloudy
8:00 AM 72 °F - 69 °F 88% 30.07 in 10 mi Calm Calm - -   Scattered Clouds
8:00 AM 71.6 °F - 69.8 °F 94% 30.09 in 6.2 mi Calm Calm - N/A   Partly Cloudy
9:00 AM 75.2 °F - 71.6 °F 89% 30.09 in 6.2 mi Calm Calm - N/A   Partly Cloudy
10:00 AM 80.6 °F 85.4 °F 73.4 °F 79% 30.12 in 6.2 mi ESE 8.1 mph - N/A   Partly Cloudy
11:00 AM 83 °F - 72 °F 62% 30.14 in 10 mi East 11.2 mph - -   Scattered Clouds
11:00 AM 84.2 °F 89.6 °F 71.6 °F 66% 30.12 in 6.2 mi East 11.5 mph - N/A   Partly Cloudy
12:00 PM 82.4 °F 88.2 °F 73.4 °F 74% 30.12 in 6.2 mi ESE 11.5 mph - N/A   Scattered Clouds
1:00 PM 80.6 °F 86.2 °F 75.2 °F 84% 30.09 in 6.2 mi East 11.5 mph - N/A   Mostly Cloudy
2:00 PM 85 °F - 74 °F 63% 30.07 in 10 mi East 11.2 mph - -   Scattered Clouds
2:00 PM 86.0 °F 93.4 °F 73.4 °F 66% 30.06 in 6.2 mi East 11.5 mph - N/A   Partly Cloudy
3:00 PM 84.2 °F 92.3 °F 75.2 °F 74% 30.04 in 6.2 mi East 13.8 mph - N/A   Scattered Clouds
4:00 PM 84.2 °F 92.3 °F 75.2 °F 74% 30.04 in 6.2 mi East 16.1 mph - N/A   Partly Cloudy
5:00 PM 82 °F - 74 °F 72% 30.04 in 10 mi East 20.1 mph - -   Partly Cloudy
5:00 PM 82.4 °F 89.5 °F 75.2 °F 79% 30.04 in 6.2 mi East 20.7 mph - N/A   Scattered Clouds
6:00 PM 78.8 °F - 73.4 °F 83% 30.04 in 6.2 mi ESE 6.9 mph - N/A   Mostly Cloudy
7:00 PM 77.0 °F - 73.4 °F 89% 30.06 in 6.2 mi East 5.8 mph - N/A   Partly Cloudy
8:00 PM 77.0 °F - 71.6 °F 83% 30.06 in 6.2 mi Calm Calm - N/A   Partly Cloudy
11:00 PM 73.4 °F - 71.6 °F 94% 30.12 in 6.2 mi Calm Calm - N/A   Partly Cloudy